GW1618 Weather Reports


time (UTC)temp
C
wind
direction
speed
KPH
gust
KPH
rain 1hr
cm
rain 24hr
cm
rain mn
cm
humidity
%
barometer
mb
20260903220904 16 248 9.7 19.3 0.00 0.18 0.18 71 1009.2
20260903220444 16 215 9.7 19.3 0.00 0.18 0.18 71 1009.2
20260903215406 16 246 11.3 20.9 0.00 0.20 0.18 68 1008.9
20260903214905 16 252 9.7 19.3 0.00 0.20 0.18 67 1008.9
20260903214408 16 278 8.0 19.3 0.00 0.23 0.18 67 1008.9
20260903213910 16 213 6.4 16.1 0.00 0.23 0.18 66 1008.9
20260903213400 16 272 9.7 24.1 0.00 0.25 0.18 66 1008.9
20260903212851 16 246 11.3 24.1 0.00 0.25 0.18 65 1008.9
20260903212344 17 271 11.3 24.1 0.00 0.28 0.18 65 1008.7
20260903211846 17 237 11.3 27.4 0.00 0.33 0.18 64 1008.7
20260903211344 17 229 11.3 27.4 0.00 0.33 0.18 60 1008.7
20260903210848 17 248 8.0 17.7 0.00 0.36 0.18 60 1008.6
20260903210633 17 269 6.4 16.1 0.00 0.36 0.18 61 1008.6
20260903205845 17 217 4.8 11.3 0.00 0.36 0.18 62 1008.6
20260903205633 17 225 6.4 14.5 0.00 0.38 0.18 63 1008.7
20260903204850 16 219 8.0 16.1 0.00 0.41 0.18 64 1008.7
20260903204331 16 136 8.0 16.1 0.00 0.41 0.18 64 1008.7
20260903203834 16 221 9.7 20.9 0.00 0.43 0.18 64 1008.7
20260903203335 16 235 9.7 20.9 0.00 0.43 0.18 63 1008.7
20260903202830 17 191 9.7 24.1 0.00 0.46 0.18 62 1008.7
20260903202329 16 192 11.3 24.1 0.00 0.46 0.18 64 1008.7
20260903201916 16 184 9.7 22.5 0.00 0.48 0.18 64 1008.7
20260903200829 16 220 11.3 22.5 0.00 0.48 0.18 64 1008.7
20260903200331 16 174 11.3 24.1 0.00 0.51 0.18 65 1008.7
20260903195835 16 156 9.7 24.1 0.00 0.51 0.18 65 1008.7
20260903195326 16 196 11.3 20.9 0.00 0.51 0.18 67 1008.7
20260903194811 16 173 11.3 24.1 0.00 0.53 0.18 68 1008.7
20260903194650 16 168 9.7 24.1 0.00 0.53 0.18 68 1008.7
20260903193543 16 171 11.3 22.5 0.00 0.53 0.18 69 1008.7
20260903192748 16 192 11.3 24.1 0.00 0.53 0.18 71 1008.7
20260903192243 15 196 11.3 24.1 0.00 0.53 0.18 70 1008.7
20260903191739 15 208 11.3 20.9 0.00 0.53 0.18 72 1008.7
20260903191240 15 194 12.9 24.1 0.00 0.53 0.18 71 1008.7
20260903191036 15 155 12.9 24.1 0.00 0.53 0.18 70 1008.7
20260903190240 15 180 11.3 25.7 0.00 0.53 0.18 71 1008.7
20260903185738 15 183 14.5 25.7 0.00 0.53 0.18 72 1008.7
20260903185238 15 203 16.1 29.0 0.00 0.53 0.18 72 1008.7
20260903184740 15 221 12.9 29.0 0.00 0.53 0.18 71 1008.7
20260903184234 15 207 16.1 33.8 0.00 0.53 0.18 73 1008.7
20260903183737 15 181 19.3 40.2 0.00 0.53 0.18 73 1008.6
20260903183534 15 191 16.1 40.2 0.00 0.53 0.18 74 1008.6
20260903182731 15 216 14.5 30.6 0.00 0.53 0.18 73 1008.6
20260903182233 15 194 16.1 33.8 0.00 0.53 0.18 74 1008.6
20260903181732 15 190 14.5 33.8 0.00 0.53 0.18 74 1008.6
20260903181222 15 184 16.1 30.6 0.00 0.53 0.18 75 1008.6
20260903180725 15 197 16.1 30.6 0.00 0.53 0.18 75 1008.4
20260903180218 15 223 14.5 30.6 0.00 0.53 0.18 76 1008.4
20260903175712 15 201 12.9 20.9 0.00 0.53 0.18 77 1008.4
20260903175514 15 186 11.3 22.5 0.00 0.53 0.18 76 1008.2
20260903174713 15 182 14.5 33.8 0.00 0.53 0.18 77 1008.2
20260903174503 15 192 17.7 33.8 0.00 0.53 0.18 76 1008.2
20260903173713 15 225 12.9 32.2 0.00 0.53 0.18 76 1008.2
20260903173504 15 175 9.7 20.9 0.00 0.53 0.18 78 1008.2
20260903172705 14 165 12.9 24.1 0.00 0.53 0.18 79 1008.2
20260903172257 14 176 11.3 24.1 0.00 0.53 0.18 79 1008.2
20260903171257 14 185 9.7 22.5 0.00 0.53 0.18 81 1008.2
20260903170202 13 192 9.7 19.3 0.00 0.53 0.18 83 1008.1
20260903165702 13 231 9.7 20.9 0.00 0.53 0.18 84 1008.1
20260903165204 13 170 8.0 20.9 0.00 0.53 0.18 84 1008.1
20260903164709 13 184 6.4 17.7 0.00 0.53 0.18 85 1008.1
20260903164204 13 189 6.4 11.3 0.00 0.53 0.18 86 1008.1
20260903163706 13 209 6.4 14.5 0.00 0.53 0.18 86 1008.1
20260903163504 13 174 8.0 19.3 0.00 0.53 0.18 86 1008.1
20260903162701 13 154 8.0 19.3 0.03 0.53 0.18 86 1008.1
20260903162206 13 184 6.4 14.5 0.03 0.53 0.18 87 1008.2
20260903161958 13 177 6.4 12.9 0.03 0.53 0.18 87 1008.2
20260903161202 13 196 8.0 14.5 0.03 0.53 0.18 87 1008.2
20260903161014 13 192 8.0 14.5 0.03 0.53 0.18 87 1008.2
20260903160206 13 183 8.0 19.3 0.03 0.53 0.18 87 1008.2
20260903155702 13 230 8.0 19.3 0.03 0.53 0.18 88 1008.2
20260903155202 13 175 8.0 16.1 0.03 0.53 0.18 88 1008.1
20260903155011 13 167 8.0 17.7 0.03 0.53 0.18 88 1008.1
20260903154508 13 212 8.0 17.7 0.03 0.53 0.18 88 1008.1
20260903153708 13 177 9.7 19.3 0.03 0.53 0.18 88 1008.1
20260903153517 13 194 11.3 19.3 0.03 0.53 0.18 88 1008.1
20260903152947 13 185 9.7 19.3 0.00 0.51 0.15 88 1008.1
20260903152146 13 148 8.0 16.1 0.00 0.51 0.15 88 1008.0
20260903151645 13 188 8.0 16.1 0.00 0.51 0.15 88 1008.0
20260903151137 12 211 6.4 11.3 0.00 0.51 0.15 88 1007.7
20260903150634 12 177 8.0 16.1 0.03 0.51 0.15 88 1007.7
20260903150124 12 193 8.0 16.1 0.03 0.51 0.15 88 1007.7
20260903145624 12 217 6.4 16.1 0.03 0.51 0.15 88 1007.6
20260903145422 12 167 9.7 17.7 0.03 0.51 0.15 87 1007.6
20260903144622 12 198 9.7 17.7 0.03 0.51 0.15 87 1007.6
20260903144126 12 198 9.7 22.5 0.03 0.51 0.15 88 1007.6
20260903143625 12 171 9.7 22.5 0.03 0.51 0.15 88 1007.6
20260903143120 12 177 9.7 20.9 0.03 0.51 0.15 88 1007.6
20260903142613 12 171 9.7 22.5 0.03 0.51 0.15 88 1007.5
20260903142111 12 177 11.3 25.7 0.03 0.51 0.15 88 1007.5
20260903141609 12 190 12.9 25.7 0.03 0.51 0.15 88 1007.5
20260903141106 12 177 11.3 20.9 0.03 0.51 0.13 87 1007.3
20260903140606 12 205 9.7 19.3 0.03 0.48 0.13 87 1007.3
20260903140107 12 172 9.7 17.7 0.03 0.48 0.13 87 1007.3
20260903135611 12 163 11.3 24.1 0.03 0.48 0.13 86 1007.2
20260903135410 12 227 11.3 24.1 0.03 0.48 0.13 86 1007.2
20260903134917 12 163 9.7 20.9 0.03 0.48 0.13 86 1007.2
20260903134105 12 187 9.7 19.3 0.03 0.48 0.13 87 1007.1
20260903133605 12 161 9.7 24.1 0.03 0.48 0.13 87 1007.1
20260903133103 12 198 9.7 25.7 0.03 0.48 0.13 87 1007.1
20260903132602 12 174 9.7 25.7 0.03 0.48 0.13 87 1007.1
20260903132105 12 198 8.0 19.3 0.03 0.48 0.13 88 1007.1
20260903131913 12 202 8.0 19.3 0.03 0.48 0.13 88 1007.1
20260903131102 12 169 11.3 19.3 0.03 0.48 0.13 87 1007.0
20260903130552 12 201 11.3 22.5 0.00 0.46 0.10 87 1007.0
20260903130042 12 202 9.7 25.7 0.00 0.46 0.10 87 1007.0
20260903125531 12 172 8.0 25.7 0.03 0.46 0.10 87 1006.9
20260903125031 12 202 8.0 19.3 0.03 0.46 0.10 87 1006.9
20260903124531 13 225 9.7 19.3 0.03 0.46 0.10 87 1006.9
20260903124022 12 186 11.3 20.9 0.03 0.46 0.10 87 1007.0
20260903123511 12 176 12.9 20.9 0.05 0.46 0.10 87 1007.0
20260903123007 12 182 11.3 20.9 0.05 0.46 0.10 87 1007.0
20260903122506 12 197 11.3 19.3 0.05 0.46 0.10 87 1006.9
20260903122004 12 190 11.3 20.9 0.05 0.46 0.10 87 1006.9
20260903121501 12 201 9.7 20.9 0.05 0.46 0.10 87 1006.9
20260903121001 12 198 8.0 17.7 0.05 0.46 0.10 88 1006.9
20260903120501 12 174 9.7 24.1 0.08 0.46 0.10 88 1006.9
20260903120002 12 164 11.3 24.1 0.05 0.43 0.08 88 1006.9
20260903115502 12 183 11.3 20.9 0.05 0.43 0.08 88 1006.8
20260903115001 12 173 9.7 24.1 0.05 0.43 0.08 87 1006.8
20260903114501 12 196 9.7 24.1 0.05 0.43 0.08 87 1006.8
20260903114319 12 217 9.7 19.3 0.05 0.43 0.08 87 1006.7
20260903113505 13 192 9.7 17.7 0.03 0.41 0.05 87 1006.7
20260903113007 13 159 11.3 22.5 0.03 0.41 0.05 87 1006.7
20260903112508 13 165 11.3 22.5 0.03 0.41 0.05 87 1006.8
20260903112002 13 168 11.3 20.9 0.03 0.41 0.05 86 1006.8
20260903111503 13 187 11.3 19.3 0.03 0.41 0.05 86 1006.8
20260903111002 13 226 11.3 19.3 0.03 0.41 0.05 85 1006.9
20260903110503 13 188 9.7 19.3 0.00 0.38 0.03 85 1006.9
20260903105955 13 221 9.7 24.1 0.00 0.38 0.03 84 1006.9
20260903105454 13 169 9.7 24.1 0.00 0.38 0.03 84 1006.9
20260903105027 13 169 8.0 16.1 0.00 0.38 0.03 84 1006.9
20260903103934 13 180 6.4 11.3 0.00 0.38 0.03 84 1006.9
20260903103425 13 200 6.4 14.5 0.00 0.38 0.03 84 1006.9
20260903102922 13 177 6.4 14.5 0.00 0.38 0.03 84 1006.9
20260903102417 13 191 6.4 11.3 0.00 0.38 0.03 84 1006.7
20260903101912 13 196 6.4 12.9 0.00 0.38 0.03 84 1006.7
20260903101412 13 177 6.4 12.9 0.00 0.38 0.03 84 1006.7
20260903100912 13 215 6.4 11.3 0.00 0.38 0.03 84 1006.6
20260903100740 13 228 4.8 11.3 0.00 0.38 0.03 84 1006.6
20260903095908 13 180 6.4 11.3 0.00 0.38 0.03 84 1006.6
20260903095409 13 188 8.0 16.1 0.00 0.38 0.03 84 1006.6
20260903094907 13 182 8.0 16.1 0.00 0.38 0.03 84 1006.6
20260903094705 13 185 6.4 11.3 0.00 0.38 0.03 84 1006.6
20260903094222 13 177 6.4 17.7 0.00 0.38 0.03 84 1006.6
20260903093835 13 176 8.0 17.7 0.00 0.38 0.03 84 1006.6
20260903092401 13 172 8.0 16.1 0.00 0.38 0.03 84 1006.8
20260903091902 13 169 6.4 16.1 0.00 0.38 0.03 84 1006.8
20260903091401 13 178 6.4 16.1 0.00 0.38 0.03 85 1006.8
20260903090901 13 200 6.4 14.5 0.00 0.38 0.03 85 1006.7
20260903090417 13 176 8.0 17.7 0.00 0.38 0.03 86 1006.7
20260903085914 13 210 8.0 17.7 0.00 0.38 0.03 85 1006.7
20260903085412 13 187 8.0 17.7 0.00 0.38 0.03 86 1006.7
20260903084903 13 222 8.0 17.7 0.03 0.38 0.03 86 1006.7
20260903084403 13 190 8.0 16.1 0.03 0.38 0.03 86 1006.7
20260903083901 13 206 9.7 17.7 0.03 0.38 0.03 86 1006.7
20260903083406 13 192 9.7 17.7 0.03 0.38 0.03 86 1006.7
20260903083156 13 182 11.3 19.3 0.03 0.38 0.03 86 1006.7
20260903082402 13 192 9.7 19.3 0.03 0.38 0.03 86 1006.6
20260903081902 13 193 8.0 14.5 0.03 0.38 0.03 86 1006.6
20260903081654 13 213 8.0 16.1 0.03 0.38 0.03 87 1006.6
20260903080900 13 202 8.0 16.1 0.03 0.38 0.03 86 1006.6
20260903080730 13 198 6.4 14.5 0.03 0.38 0.03 86 1006.6
20260903075902 13 190 6.4 9.7 0.03 0.38 0.03 86 1006.6
20260903075403 13 204 6.4 16.1 0.03 0.38 0.03 85 1006.7
20260903074905 13 175 8.0 16.1 0.00 0.36 0.00 85 1006.7
20260903074401 13 196 9.7 17.7 0.00 0.36 0.00 85 1006.7
20260903073905 13 196 8.0 17.7 0.00 0.36 0.00 84 1006.6
20260903073401 13 203 8.0 14.5 0.00 0.36 0.00 84 1006.6
20260903072904 13 202 8.0 17.7 0.00 0.36 0.00 84 1006.6
20260903072407 13 207 9.7 17.7 0.00 0.36 0.00 83 1006.6
20260903071909 13 208 9.7 17.7 0.00 0.36 0.00 83 1006.6
20260903071409 13 226 9.7 17.7 0.00 0.36 0.00 83 1006.6
20260903070903 13 208 8.0 14.5 0.00 0.36 0.00 84 1006.5
20260903070402 13 219 6.4 11.3 0.00 0.36 0.00 83 1006.5
20260903065903 13 218 6.4 11.3 0.00 0.36 0.36 84 1006.5
20260903065402 12 220 4.8 9.7 0.00 0.36 0.36 84 1006.5
20260903064901 12 228 3.2 6.4 0.00 0.36 0.36 84 1006.5
20260903064404 12 224 3.2 6.4 0.00 0.36 0.36 84 1006.5
20260903063907 12 215 1.6 4.8 0.00 0.36 0.36 84 1006.5
20260903063651 12 239 1.6 4.8 0.00 0.36 0.36 84 1006.5
20260903062905 12 219 3.2 4.8 0.00 0.36 0.36 84 1006.5
20260903062403 12 217 3.2 4.8 0.00 0.36 0.36 84 1006.6
20260903061903 12 207 3.2 4.8 0.00 0.36 0.36 84 1006.6
20260903061404 12 216 1.6 6.4 0.00 0.36 0.36 84 1006.6
20260903060856 12 210 1.6 6.4 0.00 0.36 0.36 85 1006.6
20260903060345 12 308 0.0 0.0 0.00 0.36 0.36 84 1006.6
20260903055911 12 308 0.0 0.0 0.00 0.36 0.36 84 1006.6
20260903054807 12 308 0.0 3.2 0.00 0.36 0.36 83 1006.5
20260903054305 12 308 1.6 3.2 0.00 0.36 0.36 83 1006.5
20260903053745 12 336 1.6 3.2 0.00 0.36 0.36 83 1006.5
20260903053234 13 340 1.6 3.2 0.00 0.36 0.36 82 1006.5
20260903052731 13 9 1.6 3.2 0.00 0.36 0.36 81 1006.5
20260903052234 13 189 0.0 3.2 0.00 0.36 0.36 80 1006.4
20260903052038 13 187 1.6 4.8 0.00 0.36 0.36 80 1006.4
20260903051216 13 227 1.6 4.8 0.00 0.36 0.36 80 1006.4
20260903050720 13 221 0.0 3.2 0.00 0.36 0.36 80 1006.4
20260903050211 13 182 0.0 3.2 0.00 0.36 0.36 80 1006.4
20260903045713 13 175 1.6 4.8 0.00 0.36 0.36 79 1006.4
20260903045213 13 176 1.6 6.4 0.00 0.36 0.36 79 1006.3
20260903044705 13 219 1.6 6.4 0.00 0.36 0.36 79 1006.3
20260903044206 13 204 1.6 4.8 0.00 0.36 0.36 78 1006.3
20260903043707 14 221 3.2 6.4 0.00 0.36 0.36 76 1006.2
20260903043513 13 213 3.2 6.4 0.00 0.36 0.36 76 1006.2
20260903042658 13 180 1.6 4.8 0.00 0.36 0.36 77 1006.2
20260903042204 14 175 1.6 4.8 0.00 0.36 0.36 78 1006.1
20260903041657 14 194 1.6 4.8 0.00 0.36 0.36 79 1006.1
20260903041150 14 235 3.2 4.8 0.00 0.36 0.36 74 1006.1
20260903040650 14 208 3.2 6.4 0.00 0.36 0.36 74 1006.2
20260903040149 14 195 3.2 6.4 0.00 0.36 0.36 72 1006.2
20260903035649 14 161 3.2 4.8 0.00 0.36 0.36 73 1006.2
20260903035151 15 189 3.2 6.4 0.00 0.36 0.36 75 1006.1
20260903034651 15 188 4.8 6.4 0.00 0.36 0.36 75 1006.1
20260903034141 15 215 3.2 6.4 0.00 0.36 0.36 74 1005.9
20260903034055 15 212 3.2 8.0 0.00 0.36 0.36 73 1005.9
20260903033130 15 242 4.8 8.0 0.00 0.36 0.36 69 1005.9
20260903032631 15 180 4.8 9.7 0.00 0.36 0.36 68 1005.8
20260903032130 15 179 4.8 9.7 0.00 0.36 0.36 68 1005.8
20260903032106 15 157 8.0 17.7 0.00 0.36 0.36 68 1005.8
20260903031138 15 172 11.3 20.9 0.00 0.36 0.36 68 1005.6
20260903030640 15 188 9.7 20.9 0.00 0.36 0.36 68 1005.6
20260903030133 15 205 9.7 19.3 0.00 0.36 0.36 68 1005.6
20260903025636 15 215 8.0 17.7 0.00 0.36 0.36 68 1005.4
20260903025133 16 217 9.7 17.7 0.00 0.36 0.36 68 1005.4
20260903024852 16 196 11.3 20.9 0.00 0.36 0.36 68 1005.4
20260903024631 16 196 11.3 20.9 0.00 0.36 0.36 68 1005.4
20260903024133 16 215 11.3 20.9 0.00 0.36 0.36 68 1005.1
20260903023633 16 205 11.3 20.9 0.00 0.36 0.36 68 1005.1
20260903023223 16 190 9.7 24.1 0.00 0.36 0.36 67 1005.1
20260903022848 16 229 11.3 24.1 0.00 0.36 0.36 66 1005.0
20260903022558 16 212 12.9 25.7 0.00 0.36 0.36 66 1005.0
20260903021629 16 204 9.7 25.7 0.00 0.36 0.36 65 1005.0
20260903021133 16 232 9.7 30.6 0.00 0.36 0.36 66 1005.0
20260903020646 16 217 9.7 30.6 0.00 0.36 0.36 65 1005.0
20260903020432 16 226 6.4 16.1 0.00 0.36 0.36 66 1005.0
20260903020207 16 226 6.4 16.1 0.00 0.36 0.36 66 1005.0
20260903015702 16 209 6.4 14.5 0.00 0.36 0.36 68 1005.0
20260903015637 16 180 6.4 14.5 0.00 0.36 0.36 68 1005.0
20260903014629 16 234 8.0 14.5 0.00 0.36 0.36 68 1005.0
20260903014132 16 221 8.0 16.1 0.00 0.36 0.36 68 1004.7
20260903013630 16 228 11.3 19.3 0.00 0.36 0.36 68 1004.7
20260903012631 16 188 11.3 25.7 0.00 0.36 0.36 67 1004.5
20260903012458 16 216 9.7 30.6 0.00 0.36 0.36 67 1004.5
20260903011906 16 189 12.9 30.6 0.00 0.36 0.36 68 1004.5
20260903011134 16 224 9.7 29.0 0.00 0.36 0.36 68 1004.5
20260903010936 16 228 9.7 22.5 0.00 0.36 0.36 68 1004.5
20260903010444 16 244 12.9 25.7 0.00 0.36 0.36 69 1004.5
20260903005633 16 254 12.9 25.7 0.00 0.36 0.36 70 1004.5
20260903005120 16 246 16.1 32.2 0.00 0.36 0.36 71 1004.5
20260903004611 16 234 17.7 35.4 0.00 0.36 0.36 70 1004.5
20260903004542 16 212 16.1 35.4 0.00 0.36 0.36 70 1004.5
20260903003552 16 262 11.3 30.6 0.00 0.36 0.36 70 1004.5
20260903003110 15 233 9.7 25.7 0.00 0.36 0.36 72 1004.5
20260903002600 15 224 11.3 25.7 0.00 0.36 0.36 72 1004.5
20260903002057 15 276 11.3 25.7 0.00 0.36 0.36 72 1004.5
20260903001554 15 257 12.9 24.1 0.00 0.36 0.36 73 1004.5
20260903001051 15 248 14.5 30.6 0.00 0.36 0.36 74 1004.0
20260903000549 16 223 14.5 30.6 0.00 0.36 0.36 73 1004.0
20260903000053 16 258 12.9 24.1 0.00 0.36 0.36 76 1004.0
20260902235545 16 250 16.1 32.2 0.00 0.36 0.36 75 1003.7
20260902235044 16 261 14.5 33.8 0.00 0.36 0.36 74 1003.7
20260902234842 16 300 16.1 35.4 0.00 0.36 0.36 76 1003.7
20260902234044 16 229 20.9 38.6 0.00 0.36 0.36 75 1003.5
20260902233537 16 196 16.1 38.6 0.00 0.36 0.36 75 1003.5
20260902233034 16 188 16.1 37.0 0.00 0.36 0.36 76 1003.5
20260902232537 16 194 19.3 37.0 0.00 0.36 0.36 76 1003.4
20260902232035 16 204 19.3 45.1 0.00 0.36 0.36 76 1003.4
20260902231535 16 174 19.3 45.1 0.00 0.36 0.36 76 1003.4
20260902231034 16 185 19.3 33.8 0.00 0.36 0.36 76 1003.3
20260902230837 15 188 16.1 32.2 0.00 0.36 0.36 76 1003.3
20260902230041 15 182 19.3 38.6 0.00 0.36 0.36 76 1003.3
20260902225618 15 204 20.9 38.6 0.03 0.36 0.36 76 1003.0
20260902224531 15 192 19.3 41.8 0.05 0.36 0.36 76 1003.0
20260902224029 15 219 16.1 35.4 0.05 0.36 0.36 77 1002.9
20260902223548 15 220 14.5 29.0 0.08 0.36 0.36 78 1002.9
20260902223031 15 192 12.9 27.4 0.08 0.36 0.36 80 1002.9
20260902222529 15 191 11.3 22.5 0.10 0.36 0.36 81 1002.8
20260902222030 15 152 9.7 19.3 0.13 0.36 0.36 83 1002.8
20260902221529 15 184 9.7 19.3 0.15 0.36 0.36 83 1002.8